WXM80 ListenWXM80 Stop

You find our weather info also at:

UK Metoffice

WeatherCloud

Weather Underground

Northeastern Weather Network

AWEKAS

Citizen Weather Observer Program (CWOP)

HAMweather, WeatherForYou, PWS Weather


Weather Underground History page Text

Daily Summary for October 7, 2016 Units:  English    Metric   Both
« Previous Day
Next Day »
Daily Weekly Monthly Yearly Custom
  High: Low: Average:
Temperature: 73.8 °F 51.0 °F 60 °F
Dew Point: 64.2 °F 49.3 °F 54.6 °F
Humidity: 98 % 55 % 84 %
Wind Speed: 5.0 mph 0.0 mph 0.7 mph
Wind Gust: 9.2 mph - -
Wind:- - East
Pressure: 30.29 in 30.17 in -
Precipitation: 0.00 in    
Historical Graphs
 
 
Tabular Data for October 7, 2016
Time Temperature Dew Point Pressure Wind Wind Speed Wind Gust Humidity Rainfall Rate (Hourly)
00:01 55.3 °F 52.4 °F 30.29 in Calm     90 % 0.00 in
00:06 55.2 °F 52.3 °F 30.29 in Calm     90 % 0.00 in
00:11 55.1 °F 52.2 °F 30.29 in Calm     90 % 0.00 in
00:16 55.0 °F 52.1 °F 30.29 in Calm     90 % 0.00 in
00:21 54.9 °F 52.0 °F 30.29 in Calm     90 % 0.00 in
00:26 54.8 °F 52.2 °F 30.29 in SW 0.1 mph 1.2 mph 91 % 0.00 in
00:31 54.7 °F 52.1 °F 30.29 in Calm     91 % 0.00 in
00:36 54.6 °F 52.0 °F 30.28 in Calm     91 % 0.00 in
00:41 54.5 °F 51.9 °F 30.28 in Calm     91 % 0.00 in
00:46 54.4 °F 51.8 °F 30.28 in Calm     91 % 0.00 in
00:52 54.3 °F 51.7 °F 30.28 in Calm     91 % 0.00 in
00:57 54.2 °F 51.9 °F 30.28 in Calm     92 % 0.00 in
01:02 54.1 °F 51.8 °F 30.28 in Calm     92 % 0.00 in
01:07 54.0 °F 51.4 °F 30.28 in Calm     91 % 0.00 in
01:12 53.9 °F 51.6 °F 30.28 in Calm   1.0 mph 92 % 0.00 in
01:17 53.8 °F 51.5 °F 30.29 in SW 0.1 mph 1.2 mph 92 % 0.00 in
01:22 53.7 °F 51.4 °F 30.28 in SW 0.6 mph 1.2 mph 92 % 0.00 in
01:27 53.6 °F 51.3 °F 30.28 in SW 0.1 mph 1.2 mph 92 % 0.00 in
01:32 53.5 °F 51.2 °F 30.28 in SW 0.2 mph 1.0 mph 92 % 0.00 in
01:37 53.4 °F 51.1 °F 30.28 in Calm     92 % 0.00 in
01:43 53.4 °F 51.1 °F 30.28 in Calm     92 % 0.00 in
01:48 53.3 °F 51.0 °F 30.28 in Calm     92 % 0.00 in
01:53 53.3 °F 51.3 °F 30.28 in Calm     93 % 0.00 in
01:58 53.2 °F 51.2 °F 30.28 in Calm     93 % 0.00 in
02:03 53.2 °F 51.2 °F 30.28 in Calm     93 % 0.00 in
02:08 53.1 °F 51.1 °F 30.27 in Calm     93 % 0.00 in
02:13 53.0 °F 51.0 °F 30.28 in Calm     93 % 0.00 in
02:18 52.9 °F 50.6 °F 30.28 in Calm     92 % 0.00 in
02:23 52.9 °F 50.6 °F 30.27 in Calm     92 % 0.00 in
02:28 52.7 °F 50.7 °F 30.27 in Calm     93 % 0.00 in
02:34 52.6 °F 50.6 °F 30.27 in Calm     93 % 0.00 in
02:39 52.6 °F 50.6 °F 30.27 in Calm     93 % 0.00 in
02:44 52.4 °F 50.4 °F 30.27 in Calm     93 % 0.00 in
02:49 52.3 °F 50.0 °F 30.26 in Calm     92 % 0.00 in
02:54 52.3 °F 50.0 °F 30.26 in Calm     92 % 0.00 in
02:59 52.2 °F 49.9 °F 30.26 in Calm     92 % 0.00 in
03:04 52.1 °F 50.1 °F 30.26 in Calm     93 % 0.00 in
03:09 52.1 °F 50.1 °F 30.25 in Calm     93 % 0.00 in
03:14 52.0 °F 50.0 °F 30.25 in Calm     93 % 0.00 in
03:19 51.9 °F 49.9 °F 30.24 in SW 0.1 mph   93 % 0.00 in
03:25 51.9 °F 49.9 °F 30.25 in Calm     93 % 0.00 in
03:30 51.9 °F 49.9 °F 30.24 in Calm     93 % 0.00 in
03:35 51.8 °F 49.8 °F 30.24 in Calm     93 % 0.00 in
03:40 51.8 °F 49.8 °F 30.24 in Calm     93 % 0.00 in
03:45 51.7 °F 49.7 °F 30.24 in Calm     93 % 0.00 in
03:50 51.7 °F 49.7 °F 30.24 in Calm     93 % 0.00 in
03:55 51.6 °F 49.6 °F 30.24 in Calm   1.0 mph 93 % 0.00 in
04:00 51.5 °F 49.5 °F 30.24 in Calm     93 % 0.00 in
04:05 51.5 °F 49.5 °F 30.25 in Calm     93 % 0.00 in
04:10 51.4 °F 49.4 °F 30.25 in Calm     93 % 0.00 in
04:16 51.4 °F 49.4 °F 30.24 in Calm     93 % 0.00 in
04:21 51.4 °F 49.4 °F 30.24 in Calm     93 % 0.00 in
04:26 51.4 °F 49.4 °F 30.24 in Calm   1.0 mph 93 % 0.00 in
04:31 51.3 °F 49.7 °F 30.24 in Calm     94 % 0.00 in
04:36 51.3 °F 49.6 °F 30.24 in Calm     94 % 0.00 in
04:41 51.3 °F 49.6 °F 30.24 in Calm     94 % 0.00 in
04:46 51.3 °F 49.6 °F 30.24 in Calm   1.0 mph 94 % 0.00 in
04:51 51.3 °F 49.6 °F 30.24 in Calm     94 % 0.00 in
04:56 51.3 °F 49.6 °F 30.24 in Calm     94 % 0.00 in
05:01 51.3 °F 49.6 °F 30.24 in Calm     94 % 0.00 in
05:06 51.2 °F 49.5 °F 30.24 in Calm     94 % 0.00 in
05:11 51.2 °F 49.5 °F 30.24 in Calm     94 % 0.00 in
05:16 51.2 °F 49.5 °F 30.24 in Calm     94 % 0.00 in
05:21 51.1 °F 49.4 °F 30.24 in Calm     94 % 0.00 in
05:26 51.0 °F 49.3 °F 30.24 in Calm     94 % 0.00 in
05:31 51.0 °F 49.3 °F 30.24 in SW 0.1 mph 1.2 mph 94 % 0.00 in
05:36 51.0 °F 49.3 °F 30.24 in Calm   1.2 mph 94 % 0.00 in
05:41 51.0 °F 49.3 °F 30.24 in Calm     94 % 0.00 in
05:47 51.0 °F 49.3 °F 30.24 in Calm     94 % 0.00 in
05:52 51.0 °F 49.6 °F 30.24 in SW 0.2 mph 1.2 mph 95 % 0.00 in
05:57 51.1 °F 49.7 °F 30.24 in Calm     95 % 0.00 in
06:02 51.2 °F 49.8 °F 30.24 in Calm     95 % 0.00 in
06:07 51.2 °F 49.8 °F 30.24 in Calm     95 % 0.00 in
06:12 51.2 °F 49.8 °F 30.24 in Calm     95 % 0.00 in
06:22 51.3 °F 49.9 °F 30.24 in Calm     95 % 0.00 in
06:27 51.3 °F 49.9 °F 30.24 in Calm     95 % 0.00 in
06:32 51.3 °F 49.9 °F 30.25 in SW 0.4 mph 1.2 mph 95 % 0.00 in
06:38 51.3 °F 49.9 °F 30.25 in SW 0.5 mph 1.2 mph 95 % 0.00 in
06:43 51.4 °F 50.0 °F 30.25 in Calm     95 % 0.00 in
06:48 51.4 °F 50.0 °F 30.25 in Calm     95 % 0.00 in
06:53 51.4 °F 50.0 °F 30.25 in Calm     95 % 0.00 in
06:58 51.4 °F 50.0 °F 30.25 in Calm     95 % 0.00 in
07:03 51.5 °F 50.4 °F 30.26 in Calm     96 % 0.00 in
07:08 51.5 °F 50.4 °F 30.26 in Calm     96 % 0.00 in
07:18 51.5 °F 50.4 °F 30.26 in Calm     96 % 0.00 in
07:23 51.5 °F 50.4 °F 30.26 in Calm     96 % 0.00 in
07:29 51.6 °F 50.5 °F 30.26 in Calm     96 % 0.00 in
07:34 51.7 °F 50.6 °F 30.27 in SW 0.1 mph 1.2 mph 96 % 0.00 in
07:39 51.8 °F 50.7 °F 30.27 in Calm     96 % 0.00 in
07:44 52.1 °F 51.0 °F 30.27 in Calm     96 % 0.00 in
07:49 52.5 °F 51.7 °F 30.28 in SW 0.9 mph 2.3 mph 97 % 0.00 in
07:54 53.1 °F 52.3 °F 30.28 in SW 0.4 mph 1.2 mph 97 % 0.00 in
07:59 53.5 °F 52.7 °F 30.27 in Calm     97 % 0.00 in
08:04 53.8 °F 53.0 °F 30.28 in Calm     97 % 0.00 in
08:09 54.1 °F 53.3 °F 30.28 in Calm     97 % 0.00 in
08:20 54.6 °F 53.8 °F 30.28 in Calm     97 % 0.00 in
08:25 54.9 °F 54.1 °F 30.29 in Calm     97 % 0.00 in
08:30 55.1 °F 54.3 °F 30.29 in Calm     97 % 0.00 in
08:35 55.3 °F 54.7 °F 30.28 in Calm     98 % 0.00 in
08:40 55.6 °F 54.8 °F 30.29 in Calm     97 % 0.00 in
08:45 56.2 °F 55.6 °F 30.29 in Calm     98 % 0.00 in
08:50 56.7 °F 56.1 °F 30.29 in NW 0.5 mph 2.0 mph 98 % 0.00 in
08:55 57.2 °F 56.6 °F 30.29 in Calm     98 % 0.00 in
09:00 57.8 °F 57.2 °F 30.29 in North 2.4 mph 3.5 mph 98 % 0.00 in
09:05 58.3 °F 57.7 °F 30.29 in North 1.3 mph 2.3 mph 98 % 0.00 in
09:10 58.7 °F 58.1 °F 30.28 in North 1.4 mph 1.4 mph 98 % 0.00 in
09:15 59.1 °F 58.5 °F 30.29 in Calm   1.2 mph 98 % 0.00 in
09:21 59.6 °F 59.0 °F 30.29 in North 1.0 mph 4.0 mph 98 % 0.00 in
09:26 60.0 °F 59.5 °F 30.29 in Calm   3.0 mph 98 % 0.00 in
09:31 60.4 °F 59.8 °F 30.29 in Calm   2.0 mph 98 % 0.00 in
09:36 60.7 °F 60.1 °F 30.29 in North 1.0 mph 2.0 mph 98 % 0.00 in
09:41 60.9 °F 60.3 °F 30.29 in Calm   2.0 mph 98 % 0.00 in
09:46 61.0 °F 60.4 °F 30.29 in NNE 1.0 mph 4.0 mph 98 % 0.00 in
09:56 60.9 °F 60.3 °F 30.29 in NE 2.0 mph 5.0 mph 98 % 0.00 in
10:01 60.9 °F 60.3 °F 30.29 in NE 0.6 mph 3.5 mph 98 % 0.00 in
10:06 61.0 °F 60.4 °F 30.29 in North 0.4 mph 2.3 mph 98 % 0.00 in
10:11 61.2 °F 60.6 °F 30.29 in ENE 0.6 mph 1.2 mph 98 % 0.00 in
10:16 61.4 °F 60.5 °F 30.29 in ENE 1.5 mph 2.3 mph 97 % 0.00 in
10:21 61.7 °F 60.8 °F 30.29 in ENE 2.1 mph 3.5 mph 97 % 0.00 in
10:26 61.8 °F 60.4 °F 30.29 in ENE 2.3 mph 4.6 mph 95 % 0.00 in
10:31 62.0 °F 60.3 °F 30.29 in NE 3.1 mph 4.6 mph 94 % 0.00 in
10:36 62.4 °F 60.3 °F 30.29 in NE 2.2 mph 3.5 mph 93 % 0.00 in
10:41 62.8 °F 60.4 °F 30.28 in NE 1.4 mph 3.5 mph 92 % 0.00 in
10:47 63.3 °F 60.3 °F 30.28 in ENE 1.8 mph 4.6 mph 90 % 0.00 in
10:52 63.6 °F 60.0 °F 30.28 in ENE 1.9 mph 6.9 mph 88 % 0.00 in
10:57 63.9 °F 60.3 °F 30.28 in ENE 3.7 mph 8.1 mph 88 % 0.00 in
11:02 64.1 °F 60.2 °F 30.28 in NE 2.3 mph 3.5 mph 87 % 0.00 in
11:07 64.8 °F 60.8 °F 30.27 in East 1.0 mph 2.3 mph 87 % 0.00 in
11:12 65.7 °F 61.4 °F 30.27 in NE 2.9 mph 5.8 mph 86 % 0.00 in
11:17 66.4 °F 61.1 °F 30.27 in NE 2.6 mph 4.6 mph 83 % 0.00 in
11:22 67.0 °F 61.7 °F 30.27 in ENE 2.9 mph 6.9 mph 83 % 0.00 in
11:27 67.9 °F 62.2 °F 30.27 in ENE 2.0 mph 2.3 mph 82 % 0.00 in
11:32 68.8 °F 62.4 °F 30.27 in NE 0.9 mph 3.5 mph 80 % 0.00 in
11:38 69.6 °F 62.4 °F 30.27 in NE 2.0 mph 4.6 mph 78 % 0.00 in
11:43 70.5 °F 62.9 °F 30.27 in ENE 2.4 mph 4.6 mph 77 % 0.00 in
11:48 71.0 °F 62.7 °F 30.27 in NE 3.1 mph 5.8 mph 75 % 0.00 in
11:53 71.1 °F 62.4 °F 30.27 in ENE 2.6 mph 4.0 mph 74 % 0.00 in
11:58 71.3 °F 63.3 °F 30.27 in ENE 1.8 mph 3.5 mph 76 % 0.00 in
12:03 71.5 °F 63.2 °F 30.27 in ENE 2.4 mph 4.6 mph 75 % 0.00 in
12:08 71.9 °F 63.2 °F 30.27 in ENE 0.9 mph 3.5 mph 74 % 0.00 in
12:13 71.9 °F 62.4 °F 30.27 in ENE 0.7 mph 3.5 mph 72 % 0.00 in
12:18 72.1 °F 63.4 °F 30.26 in ENE 1.2 mph 4.0 mph 74 % 0.00 in
12:23 72.3 °F 63.2 °F 30.27 in ENE 0.8 mph 3.5 mph 73 % 0.00 in
12:29 72.3 °F 63.5 °F 30.27 in ENE 1.0 mph 3.5 mph 74 % 0.00 in
12:34 72.5 °F 63.0 °F 30.26 in NE 2.3 mph 3.5 mph 72 % 0.00 in
12:39 72.8 °F 63.2 °F 30.26 in East 3.6 mph 9.0 mph 72 % 0.00 in
12:44 72.2 °F 61.9 °F 30.26 in NE 3.8 mph 8.1 mph 70 % 0.00 in
12:49 72.1 °F 63.0 °F 30.25 in ENE 0.7 mph 2.3 mph 73 % 0.00 in
12:54 72.1 °F 62.6 °F 30.25 in ENE 3.2 mph 4.6 mph 72 % 0.00 in
12:59 72.5 °F 63.7 °F 30.25 in ENE 1.2 mph 3.0 mph 74 % 0.00 in
13:04 72.9 °F 63.7 °F 30.25 in East 3.1 mph 4.6 mph 73 % 0.00 in
13:09 73.4 °F 64.2 °F 30.24 in NE 1.0 mph 2.0 mph 73 % 0.00 in
13:14 73.7 °F 63.7 °F 30.24 in NE 0.6 mph 3.5 mph 71 % 0.00 in
13:20 73.8 °F 63.0 °F 30.24 in ENE 2.7 mph 4.6 mph 69 % 0.00 in
13:25 73.7 °F 62.9 °F 30.24 in ENE 1.8 mph 3.5 mph 69 % 0.00 in
13:30 73.6 °F 62.8 °F 30.23 in ENE 1.8 mph 3.5 mph 69 % 0.00 in
13:35 73.5 °F 62.7 °F 30.23 in NNE 4.5 mph 6.0 mph 69 % 0.00 in
13:40 73.4 °F 63.0 °F 30.23 in ENE 3.4 mph 6.9 mph 70 % 0.00 in
13:45 73.3 °F 62.9 °F 30.23 in ENE 1.9 mph 3.5 mph 70 % 0.00 in
13:50 73.5 °F 63.1 °F 30.23 in ENE 2.7 mph 8.1 mph 70 % 0.00 in
13:55 73.4 °F 62.6 °F 30.22 in ENE 1.9 mph 5.8 mph 69 % 0.00 in
14:00 73.3 °F 63.3 °F 30.22 in ENE 2.3 mph 4.0 mph 71 % 0.00 in
14:05 73.0 °F 61.8 °F 30.22 in ENE 5.0 mph 9.2 mph 68 % 0.00 in
14:11 72.6 °F 61.4 °F 30.23 in ENE 5.0 mph 7.0 mph 68 % 0.00 in
14:16 72.5 °F 62.6 °F 30.22 in NE 3.3 mph 6.0 mph 71 % 0.00 in
14:21 72.5 °F 61.7 °F 30.22 in ENE 2.0 mph 5.0 mph 69 % 0.00 in
14:26 72.4 °F 61.7 °F 30.22 in ENE 2.0 mph 8.0 mph 69 % 0.00 in
14:31 72.2 °F 60.6 °F 30.22 in NE 2.0 mph 6.9 mph 67 % 0.00 in
14:36 72.2 °F 61.1 °F 30.22 in ENE 5.0 mph 8.0 mph 68 % 0.00 in
14:41 72.2 °F 60.2 °F 30.21 in ENE 2.0 mph 6.0 mph 66 % 0.00 in
14:46 72.2 °F 60.2 °F 30.21 in East 3.7 mph 6.9 mph 66 % 0.00 in
14:51 72.2 °F 60.6 °F 30.21 in ENE 2.0 mph 8.0 mph 67 % 0.00 in
14:56 72.2 °F 60.6 °F 30.21 in ENE 3.0 mph 8.0 mph 67 % 0.00 in
15:01 72.3 °F 60.3 °F 30.21 in ENE 3.6 mph 6.9 mph 66 % 0.00 in
15:06 72.0 °F 60.0 °F 30.21 in ENE 2.0 mph 9.0 mph 66 % 0.00 in
15:11 71.9 °F 60.8 °F 30.21 in ENE 2.0 mph 5.0 mph 68 % 0.00 in
15:16 71.7 °F 60.6 °F 30.21 in ENE 2.0 mph 7.0 mph 68 % 0.00 in
15:21 71.6 °F 59.6 °F 30.21 in ENE 3.0 mph 5.0 mph 66 % 0.00 in
15:26 71.4 °F 59.9 °F 30.20 in ENE 3.0 mph 7.0 mph 67 % 0.00 in
15:31 71.2 °F 59.3 °F 30.20 in ENE 1.6 mph 3.5 mph 66 % 0.00 in
15:36 71.0 °F 59.5 °F 30.20 in ENE 1.0 mph 5.0 mph 67 % 0.00 in
15:41 70.8 °F 59.3 °F 30.20 in NE 2.0 mph 5.0 mph 67 % 0.00 in
15:46 70.5 °F 59.8 °F 30.21 in ENE 1.1 mph 3.5 mph 69 % 0.00 in
15:51 70.4 °F 60.5 °F 30.20 in ENE 1.0 mph 2.0 mph 71 % 0.00 in
15:56 70.2 °F 60.8 °F 30.21 in ENE 1.0 mph 2.0 mph 72 % 0.00 in
16:01 70.1 °F 61.0 °F 30.21 in ENE 1.2 mph 2.3 mph 73 % 0.00 in
16:06 70.0 °F 61.3 °F 30.21 in ENE 1.0 mph 4.0 mph 74 % 0.00 in
16:11 69.9 °F 61.2 °F 30.20 in ENE 2.0 mph 7.0 mph 74 % 0.00 in
16:16 69.8 °F 61.5 °F 30.20 in East 0.4 mph 2.3 mph 75 % 0.00 in
16:26 69.7 °F 61.8 °F 30.20 in ENE 1.0 mph 3.0 mph 76 % 0.00 in
16:31 69.7 °F 61.8 °F 30.20 in ENE 1.2 mph 3.5 mph 76 % 0.00 in
16:36 69.6 °F 61.7 °F 30.20 in ENE 1.0 mph 4.0 mph 76 % 0.00 in
16:41 69.5 °F 61.6 °F 30.19 in ENE 1.0 mph 4.0 mph 76 % 0.00 in
16:46 69.4 °F 61.5 °F 30.19 in ENE 0.5 mph 1.2 mph 76 % 0.00 in
16:56 69.2 °F 55.6 °F 30.19 in SE 3.0 mph 6.0 mph 62 % 0.00 in
17:01 69.2 °F 54.3 °F 30.19 in SE 1.7 mph 3.5 mph 59 % 0.00 in
17:06 69.3 °F 53.4 °F 30.19 in SE 3.0 mph 6.0 mph 57 % 0.00 in
17:11 69.5 °F 53.6 °F 30.20 in SE 3.0 mph 9.0 mph 57 % 0.00 in
17:16 69.5 °F 54.1 °F 30.20 in SE 3.0 mph 8.0 mph 58 % 0.00 in
17:20 69.5 °F 53.6 °F 30.20 in SE 2.0 mph 4.6 mph 57 % 0.00 in
17:26 69.4 °F 54.0 °F 30.20 in Calm   3.0 mph 58 % 0.00 in
17:31 69.3 °F 53.8 °F 30.20 in SE 3.0 mph 7.0 mph 58 % 0.00 in
17:35 69.0 °F 52.2 °F 30.20 in SSE 4.1 mph 5.0 mph 55 % 0.00 in
17:41 68.8 °F 52.9 °F 30.20 in SE 1.0 mph 4.0 mph 57 % 0.00 in
17:46 68.6 °F 53.2 °F 30.20 in SE 1.0 mph 5.0 mph 58 % 0.00 in
17:51 68.4 °F 53.0 °F 30.20 in Calm   2.0 mph 58 % 0.00 in
17:56 68.1 °F 53.2 °F 30.20 in Calm   1.0 mph 59 % 0.00 in
18:01 67.8 °F 53.4 °F 30.20 in Calm   1.2 mph 60 % 0.00 in
18:06 67.6 °F 53.2 °F 30.20 in Calm   1.0 mph 60 % 0.00 in
18:11 67.3 °F 52.9 °F 30.20 in Calm   1.0 mph 60 % 0.00 in
18:16 66.9 °F 53.5 °F 30.20 in Calm     62 % 0.00 in
18:21 66.6 °F 53.2 °F 30.19 in SE 0.2 mph   62 % 0.00 in
18:26 66.2 °F 53.2 °F 30.19 in Calm     63 % 0.00 in
18:31 65.7 °F 52.7 °F 30.20 in Calm     63 % 0.00 in
18:36 65.1 °F 52.6 °F 30.19 in Calm     64 % 0.00 in
18:41 64.7 °F 52.7 °F 30.20 in Calm     65 % 0.00 in
18:46 64.3 °F 52.7 °F 30.20 in Calm     66 % 0.00 in
18:51 64.0 °F 52.4 °F 30.20 in Calm     66 % 0.00 in
18:56 63.6 °F 52.0 °F 30.20 in Calm     66 % 0.00 in
19:01 63.1 °F 52.0 °F 30.20 in Calm     67 % 0.00 in
19:06 62.7 °F 51.6 °F 30.19 in Calm     67 % 0.00 in
19:11 62.3 °F 51.6 °F 30.19 in Calm     68 % 0.00 in
19:16 61.7 °F 51.4 °F 30.19 in Calm     69 % 0.00 in
19:21 61.3 °F 51.4 °F 30.19 in Calm     70 % 0.00 in
19:26 60.9 °F 51.4 °F 30.19 in Calm     71 % 0.00 in
19:31 60.7 °F 51.6 °F 30.19 in Calm     72 % 0.00 in
19:36 60.3 °F 51.2 °F 30.19 in Calm   1.0 mph 72 % 0.00 in
19:41 60.0 °F 50.9 °F 30.19 in Calm     72 % 0.00 in
19:46 59.6 °F 51.3 °F 30.19 in Calm     74 % 0.00 in
19:52 59.1 °F 51.5 °F 30.19 in Calm     76 % 0.00 in
19:57 58.7 °F 51.5 °F 30.19 in Calm     77 % 0.00 in
20:02 58.4 °F 51.6 °F 30.19 in Calm     78 % 0.00 in
20:07 58.1 °F 51.3 °F 30.19 in Calm     78 % 0.00 in
20:12 57.9 °F 51.1 °F 30.19 in Calm     78 % 0.00 in
20:17 57.7 °F 51.2 °F 30.19 in Calm     79 % 0.00 in
20:22 57.5 °F 51.0 °F 30.19 in Calm     79 % 0.00 in
20:27 57.3 °F 51.2 °F 30.19 in Calm     80 % 0.00 in
20:32 57.2 °F 51.4 °F 30.19 in Calm     81 % 0.00 in
20:37 57.0 °F 51.2 °F 30.19 in Calm     81 % 0.00 in
20:48 56.6 °F 51.5 °F 30.19 in Calm     83 % 0.00 in
20:53 56.4 °F 51.3 °F 30.19 in Calm     83 % 0.00 in
20:58 56.2 °F 51.1 °F 30.19 in Calm     83 % 0.00 in
21:03 56.0 °F 51.2 °F 30.19 in Calm     84 % 0.00 in
21:08 55.9 °F 51.1 °F 30.19 in Calm   1.0 mph 84 % 0.00 in
21:13 55.7 °F 51.3 °F 30.19 in Calm   1.2 mph 85 % 0.00 in
21:18 55.6 °F 51.2 °F 30.19 in Calm     85 % 0.00 in
21:23 55.6 °F 51.5 °F 30.19 in Calm     86 % 0.00 in
21:28 55.5 °F 51.7 °F 30.19 in Calm     87 % 0.00 in
21:34 55.4 °F 51.6 °F 30.19 in SE 0.2 mph 1.2 mph 87 % 0.00 in
21:39 55.4 °F 51.6 °F 30.19 in Calm   1.2 mph 87 % 0.00 in
21:44 55.3 °F 51.8 °F 30.19 in Calm     88 % 0.00 in
21:49 55.3 °F 52.1 °F 30.19 in Calm     89 % 0.00 in
21:54 55.2 °F 51.7 °F 30.19 in Calm     88 % 0.00 in
21:59 55.1 °F 51.9 °F 30.19 in Calm     89 % 0.00 in
22:04 55.1 °F 51.9 °F 30.19 in Calm     89 % 0.00 in
22:09 55.0 °F 51.8 °F 30.18 in Calm     89 % 0.00 in
22:14 55.0 °F 51.8 °F 30.19 in Calm     89 % 0.00 in
22:19 54.9 °F 51.7 °F 30.19 in Calm     89 % 0.00 in
22:25 54.8 °F 51.6 °F 30.18 in Calm     89 % 0.00 in
22:30 54.7 °F 51.5 °F 30.18 in Calm     89 % 0.00 in
22:35 54.6 °F 51.4 °F 30.18 in Calm     89 % 0.00 in
22:40 54.5 °F 51.3 °F 30.19 in Calm     89 % 0.00 in
22:45 54.4 °F 51.2 °F 30.18 in Calm     89 % 0.00 in
22:50 54.3 °F 51.1 °F 30.18 in Calm     89 % 0.00 in
22:55 54.2 °F 51.3 °F 30.18 in Calm     90 % 0.00 in
23:00 54.1 °F 50.9 °F 30.17 in Calm     89 % 0.00 in
23:05 53.9 °F 50.7 °F 30.18 in SE 0.1 mph 1.2 mph 89 % 0.00 in
23:10 53.9 °F 51.0 °F 30.18 in Calm     90 % 0.00 in
23:15 53.8 °F 50.9 °F 30.18 in Calm   1.0 mph 90 % 0.00 in
23:20 53.8 °F 51.2 °F 30.18 in Calm     91 % 0.00 in
23:25 53.7 °F 51.1 °F 30.18 in Calm     91 % 0.00 in
23:30 53.7 °F 51.1 °F 30.17 in Calm     91 % 0.00 in
23:35 53.6 °F 51.0 °F 30.17 in Calm     91 % 0.00 in
23:40 53.6 °F 51.0 °F 30.17 in Calm     91 % 0.00 in
23:45 53.5 °F 51.2 °F 30.17 in Calm     92 % 0.00 in
23:50 53.5 °F 51.2 °F 30.17 in Calm     92 % 0.00 in
23:55 53.3 °F 51.0 °F 30.17 in Calm     92 % 0.00 in
Crab Meadow Weather
Compliments of Weather Underground - 2.75 mb

Script developed by  Jim McMurry - jmcmurry@mwt.net Adapted for the template by  Wim van der Kuil - Leuven-Template.eu

Weather Terms: Heat Index - The apparent temperature that describes the combined effect of high temperatures and high levels of humidity, which reduces the body's ability to cool itself.